#timestamp,LO_Frequency,Hit 
1500620415.0,286047036.0,N
1500620415.9,286047036.0,N
1500620435.8,286047035.9,N
1500620455.6,286047035.7,N
1500620475.4,286047035.8,N
1500620495.2,286047035.1,N
1500620515.1,286047034.3,N
1500620516.0,286047034.3,N
1500620535.8,286047032.0,N
1500620555.6,286047030.1,N
1500620575.5,286047034.1,N
1500620595.3,286047033.6,N
1500620615.1,286047032.3,N
1500620635.9,286047032.9,N
1500620655.7,286047033.1,N
1500620675.5,286047032.0,N
1500620695.4,286047034.5,N
1500620715.2,286047032.2,N
1500620735.0,286047034.6,N
1500620735.9,286047034.6,N
1500620755.8,286047034.3,N
1500620775.6,286047033.0,N
1500620795.4,286047031.0,N
1500620815.3,286047029.0,N
1500620835.1,286047029.2,N
1500620855.8,286047031.5,N
1500620875.7,286047031.3,N
1500620895.5,286047030.5,N
1500620915.3,286047030.3,N
1500620935.2,286047033.2,N
1500620955.9,286047032.0,N
1500620975.7,286047030.5,N
1500620995.6,286047030.1,N
1500621015.4,286047033.2,N
1500621035.2,286047030.4,N
1500621055.1,286047031.6,N
1500621056.0,286047031.6,N
1500621075.8,286047026.9,N
1500621095.6,286047027.3,N
1500621115.5,286047027.1,N
1500621135.3,286047027.0,N
1500621155.1,286047027.8,N
1500621175.9,286047026.3,N
1500621195.7,286047025.7,N
1500621215.5,286047025.3,N
1500621235.3,286047026.9,N
1500621255.2,286047027.5,N
1500621275.0,286047028.1,N
1500621275.9,286047028.1,N
1500621295.7,286047027.6,N
1500621315.6,286047028.1,N
1500621335.4,286047026.5,N
1500621355.2,286047024.3,N
1500621375.1,286047024.0,N
1500621376.0,286047024.0,N
1500621395.8,286047025.5,N
1500621415.6,286047025.9,N
1500621435.5,286047024.1,N
1500621455.3,286047025.4,N
1500621475.1,286047025.8,N
1500621495.9,286047024.2,N
1500621515.7,286047026.8,N
1500621535.5,286047026.7,N
1500621555.4,286047026.7,N
1500621575.2,286047023.8,N
1500621595.0,286047026.3,N
1500621595.9,286047026.3,N
1500621615.8,286047026.5,N
1500621635.6,286047025.6,N
1500621655.4,286047024.0,N
1500621675.3,286047023.2,N
1500621695.1,286047024.0,N
1500621696.0,286047024.0,N
1500621715.8,286047023.8,N
1500621735.7,286047025.6,N
1500621755.5,286047023.9,N
1500621775.3,286047026.4,N
1500621795.2,286047028.2,N
1500621815.9,286047027.2,N
1500621835.7,286047029.9,N
1500621855.6,286047029.2,N
1500621875.4,286047031.6,N
1500621895.2,286047030.8,N
1500621915.0,286047031.5,N
1500621916.0,286047031.5,N
1500621935.8,286047028.5,N
1500621955.6,286047029.7,N
1500621975.4,286047027.0,N
1500621995.3,286047028.2,N
1500622015.1,286047025.8,N
1500622035.8,286047024.9,N
1500622055.7,286047025.1,N
1500622075.5,286047023.2,N
1500622095.3,286047022.8,N
1500622115.2,286047023.1,N
1500622135.9,286047021.7,N
1500622155.7,286047023.2,N
1500622175.6,286047023.2,N
1500622195.4,286047020.6,N
1500622215.2,286047019.6,N
1500622235.1,286047020.2,N
1500622236.0,286047020.2,N
1500622255.8,286047017.3,N
1500622275.6,286047020.0,N
1500622295.5,286047018.3,N
1500622315.3,286047020.3,N
1500622335.1,286047017.9,N
1500622355.9,286047016.3,N
1500622375.7,286047015.7,N
1500622395.5,286047015.9,N
1500622415.4,286047014.5,N
1500622435.2,286047014.6,N
1500622455.0,286047014.6,N
1500622455.9,286047014.6,N
1500622475.8,286047017.1,N
1500622495.6,286047014.8,N
1500622515.4,286047016.4,N
1500622535.3,286047018.1,N
1500622555.1,286047020.2,N
1500622556.0,286047020.2,N
1500622575.8,286047017.3,N
1500622595.6,286047020.0,N
1500622615.5,286047019.2,N
1500622635.3,286047021.6,N
1500622655.1,286047019.8,N
1500622675.9,286047016.4,N
1500622695.7,286047020.0,N
1500622715.5,286047020.3,N
1500622735.4,286047019.9,N
1500622755.2,286047020.0,N
1500622775.0,286047020.2,N
1500622775.9,286047020.2,N
1500622795.8,286047019.9,N
1500622815.6,286047019.9,N
1500622835.4,286047019.9,N
1500622855.3,286047015.8,N
1500622875.1,286047014.2,N
1500622895.8,286047016.6,N
1500622915.7,286047018.5,N
1500622935.5,286047018.2,N
1500622955.3,286047017.9,N
1500622975.2,286047020.3,N
1500622995.9,286047020.4,N
1500623015.7,286047020.2,N
1500623035.6,286047018.5,N
1500623055.4,286047017.7,N
1500623075.2,286047020.3,N
1500623095.1,286047017.4,N
1500623096.0,286047017.4,N
1500623115.8,286047020.3,N
1500623135.6,286047017.8,N
1500623155.5,286047017.3,N
1500623175.3,286047020.4,N
1500623195.1,286047020.1,N
1500623215.9,286047019.6,N
1500623235.7,286047018.9,N
1500623255.5,286047021.1,N
1500623275.3,286047019.3,N
1500623295.2,286047015.8,N
1500623315.0,286047019.9,N
1500623315.9,286047019.9,N
1500623335.7,286047019.7,N
1500623355.6,286047020.2,N
1500623375.4,286047021.3,N
1500623395.2,286047021.4,N
1500623415.1,286047019.4,N
1500623416.0,286047019.4,N
1500623435.8,286047019.6,N
1500623455.6,286047019.6,N
1500623475.5,286047017.4,N
1500623495.3,286047017.8,N
1500623515.1,286047017.7,N
1500623535.9,286047016.5,N
1500623555.7,286047015.6,N
1500623575.5,286047014.0,N
1500623595.4,286047011.6,N
1500623615.2,286047009.6,N
1500623635.0,286047009.6,N
1500623635.9,286047009.6,N
1500623655.8,286047010.9,N
1500623675.6,286047012.8,N
1500623695.4,286047014.6,N
1500623715.3,286047015.9,N
1500623735.1,286047018.0,N
1500623755.8,286047017.8,N
1500623775.7,286047017.5,N
1500623795.5,286047018.4,N
1500623815.3,286047016.0,N
1500623835.2,286047013.4,N
1500623855.9,286047013.8,N
1500623875.7,286047011.9,N
1500623895.6,286047008.1,N
1500623915.4,286047009.1,N
1500623935.2,286047009.2,N
1500623955.1,286047006.3,N
1500623956.0,286047006.3,N
1500623975.8,286047007.1,N
1500623995.6,286047007.1,N
